Volver al catálogo

BREEZE-M DEB

TANK

ActivoHEO
NORAD 32488·DEBRIS·🇷🇺 Russia

Lanzado Feb 11, 2008 desde Baikonur Cosmodrome

Loading…

Próximos Pases (próximas 24 horas)

TLE

ActualizadoSource: Space-Track

Época: Sep 14, 2026, 09:05 UTC

1 32488U 08006B   26257.37896426 -.00000099  00000-0  90697-3 0  9999
2 32488  48.5265 151.7345 7160756  31.3208 356.3118  2.21552329150163

Sigue BREEZE-M DEB en tiempo real con AllMySat

Download on the App Store